Change the Weather History Date:

Sunday, March 23, 2014

  Actual Average (KVPZ) Record (KVPZ)
Temperature  
Mean Temperature 22 °F 40 °F  
Max Temperature 28 °F 50 °F 75 °F (1930)
Min Temperature 17 °F 31 °F 7 °F (1940)
Degree Days  
Heating Degree Days 42 25  
Month to date heating degree days 661  
Since 1 July heating degree days 5393  
Cooling Degree Days 0 0  
Month to date cooling degree days 0  
Year to date cooling degree days 0  
Moisture  
Dew Point 14 °F    
Average Humidity 66    
Maximum Humidity 85    
Minimum Humidity 49    
Precipitation  
Precipitation 0.00 in 0.10 in 0.84 in (1938)
Month to date precipitation 1.75  
Year to date precipitation 4.92  
Sea Level Pressure  
Sea Level Pressure 30.36 in    
Wind  
Wind Speed 7 mph (North)    
Max Wind Speed 14 mph    
Max Gust Speed 18 mph    
Visibility 10 miles    
Events Snow    
T = Trace of Precipitation, MM = Missing Value Source: NWS Daily Summary

Daily Weather History Graph

Daily Weather History Graph

Search for Another Location

Airport or City:

Trip Planner

Search our weather history database for the weather conditions in past years. The results will help you decide how hot, cold, wet, or windy it might be!

Date:

Astronomy

Mar. 23, 2014 Rise Set
Actual Time 6:45 AM CDT 7:02 PM CDT
Civil Twilight 6:17 AM CDT 7:30 PM CDT
Nautical Twilight 5:44 AM CDT 8:02 PM CDT
Astronomical Twilight 5:11 AM CDT 8:36 PM CDT
Moon 1:22 AM CDT (3/23) 11:22 AM CDT (3/23)
Length of Visible Light 13h 12m
Length of Day
12h 17m
Waning Gibbous, 54% of the Moon is Illuminated
Mar 23
Waning Gibbous
Mar 23
Last Quarter
Mar 30
New
Apr 7
First Quarter
Apr 15
Full

Hourly Weather History & Observations

Time (CDT) Temp. Windchill Dew Point Humidity Pressure Visibility Wind Dir Wind Speed Gust Speed Precip Events Conditions
12:15 AM 25.9 °F 18.2 °F 20.3 °F 79% 30.29 in 10.0 mi North 6.9 mph - N/A   Mostly Cloudy
12:35 AM 25.7 °F 19.0 °F 19.9 °F 79% 30.30 in 10.0 mi North 5.8 mph - N/A   Scattered Clouds
12:55 AM 25.9 °F 19.2 °F 19.4 °F 76% 30.30 in 10.0 mi North 5.8 mph - N/A   Scattered Clouds
1:15 AM 26.2 °F 18.6 °F 19.0 °F 74% 30.30 in 10.0 mi North 6.9 mph - N/A   Overcast
1:35 AM 26.2 °F 19.6 °F 19.0 °F 74% 30.30 in 10.0 mi North 5.8 mph - N/A   Overcast
1:55 AM 26.4 °F 22.4 °F 19.4 °F 75% 30.31 in 10.0 mi NNW 3.5 mph - N/A   Overcast
2:15 AM 26.4 °F 22.4 °F 19.4 °F 75% 30.30 in 10.0 mi NNW 3.5 mph - N/A   Overcast
2:35 AM 26.4 °F - 19.4 °F 75% 30.30 in 10.0 mi Calm Calm - N/A   Overcast
2:55 AM 26.6 °F 15.2 °F 18.7 °F 72% 30.30 in 10.0 mi North 13.8 mph - N/A   Overcast
3:15 AM 26.2 °F 19.6 °F 19.4 °F 75% 30.30 in 10.0 mi North 5.8 mph - N/A   Overcast
3:35 AM 26.1 °F 18.4 °F 20.1 °F 78% 30.31 in 10.0 mi North 6.9 mph - N/A   Mostly Cloudy
3:55 AM 26.1 °F 19.4 °F 20.3 °F 79% 30.31 in 10.0 mi NNE 5.8 mph - N/A Snow Light Snow
4:15 AM 25.7 °F 19.0 °F 20.7 °F 81% 30.31 in 7.0 mi NNE 5.8 mph - N/A Snow Light Snow
4:35 AM 25.3 °F 17.6 °F 20.5 °F 82% 30.32 in 10.0 mi North 6.9 mph - N/A   Mostly Cloudy
4:55 AM 24.8 °F 16.9 °F 20.7 °F 84% 30.32 in 4.0 mi NNE 6.9 mph - N/A Snow Light Snow
5:15 AM 23.9 °F 16.8 °F 19.9 °F 85% 30.33 in 10.0 mi North 5.8 mph - N/A   Scattered Clouds
5:35 AM 23.5 °F 16.4 °F 19.2 °F 84% 30.33 in 10.0 mi North 5.8 mph - N/A   Scattered Clouds
5:55 AM 23.0 °F 13.9 °F 17.1 °F 78% 30.34 in 10.0 mi NNE 8.1 mph - N/A   Mostly Cloudy
6:15 AM 23.5 °F 15.4 °F 15.1 °F 70% 30.34 in 10.0 mi NNE 6.9 mph - N/A   Overcast
6:35 AM 23.0 °F 13.1 °F 13.3 °F 66% 30.35 in 10.0 mi NNE 9.2 mph - N/A   Mostly Cloudy
6:55 AM 22.5 °F 12.4 °F 12.7 °F 66% 30.35 in 10.0 mi NNE 9.2 mph - N/A   Mostly Cloudy
7:15 AM 22.1 °F 12.8 °F 12.0 °F 65% 30.36 in 10.0 mi NNE 8.1 mph - N/A   Scattered Clouds
7:35 AM 22.5 °F 13.2 °F 12.0 °F 64% 30.36 in 10.0 mi NE 8.1 mph - N/A   Scattered Clouds
7:55 AM 22.6 °F 14.3 °F 12.0 °F 64% 30.36 in 10.0 mi NNE 6.9 mph - N/A   Scattered Clouds
8:15 AM 23.0 °F 13.1 °F 11.7 °F 62% 30.37 in 10.0 mi NE 9.2 mph - N/A   Scattered Clouds
8:35 AM 23.7 °F 15.6 °F 11.5 °F 60% 30.37 in 10.0 mi NE 6.9 mph - N/A   Scattered Clouds
8:55 AM 24.6 °F 16.7 °F 12.0 °F 59% 30.38 in 10.0 mi NE 6.9 mph - N/A   Scattered Clouds
9:15 AM 24.4 °F 17.5 °F 12.0 °F 59% 30.38 in 10.0 mi NE 5.8 mph - N/A   Overcast
9:35 AM 25.7 °F 16.4 °F 12.7 °F 58% 30.39 in 10.0 mi NE 9.2 mph - N/A   Overcast
9:55 AM 24.6 °F 15.1 °F 11.5 °F 57% 30.39 in 10.0 mi NNE 9.2 mph - N/A   Overcast
10:15 AM 24.6 °F 16.7 °F 10.9 °F 56% 30.40 in 10.0 mi North 6.9 mph - N/A   Overcast
10:35 AM 24.8 °F 17.9 °F 11.7 °F 57% 30.40 in 10.0 mi North 5.8 mph - N/A   Mostly Cloudy
10:55 AM 25.0 °F 18.1 °F 12.0 °F 58% 30.40 in 10.0 mi North 5.8 mph - N/A   Mostly Cloudy
11:15 AM 27.0 °F 20.5 °F 11.5 °F 52% 30.40 in 10.0 mi NNW 5.8 mph - N/A   Mostly Cloudy
11:35 AM 26.1 °F 17.6 °F 11.3 °F 54% 30.39 in 10.0 mi North 8.1 mph - N/A   Mostly Cloudy
11:55 AM 27.3 °F 20.9 °F 10.9 °F 50% 30.39 in 10.0 mi North 5.8 mph - N/A   Mostly Cloudy
12:15 PM 28.0 °F 21.7 °F 10.9 °F 49% 30.39 in 10.0 mi North 5.8 mph - N/A   Mostly Cloudy
12:35 PM 28.4 °F 18.0 °F 11.7 °F 50% 30.39 in 10.0 mi NNW 12.7 mph 16.1 mph N/A   Mostly Cloudy
12:55 PM 28.2 °F 18.3 °F 11.1 °F 49% 30.39 in 10.0 mi NW 11.5 mph 18.4 mph N/A   Mostly Cloudy
1:15 PM 27.0 °F 15.6 °F 13.8 °F 58% 30.38 in 10.0 mi NNW 13.8 mph 17.3 mph N/A   Mostly Cloudy
1:35 PM 27.7 °F 18.8 °F 14.5 °F 58% 30.38 in 10.0 mi NNW 9.2 mph 16.1 mph N/A   Mostly Cloudy
1:55 PM 26.8 °F 20.2 °F 14.5 °F 60% 30.38 in 10.0 mi NW 5.8 mph - N/A   Mostly Cloudy
2:15 PM 25.9 °F 14.8 °F 16.9 °F 69% 30.38 in 5.0 mi North 12.7 mph 17.3 mph N/A Snow Light Snow
2:35 PM 26.1 °F 15.6 °F 14.2 °F 61% 30.37 in 10.0 mi North 11.5 mph - N/A   Mostly Cloudy
2:55 PM 26.1 °F 16.8 °F 14.7 °F 62% 30.37 in 10.0 mi NNW 9.2 mph - N/A   Overcast
3:15 PM 25.2 °F 16.5 °F 13.1 °F 60% 30.36 in 10.0 mi NW 8.1 mph - N/A   Scattered Clouds
3:35 PM 27.3 °F 16.6 °F 13.8 °F 57% 30.36 in 10.0 mi NW 12.7 mph 17.3 mph N/A   Scattered Clouds
3:55 PM 25.9 °F 17.4 °F 12.0 °F 56% 30.36 in 10.0 mi NNW 8.1 mph - N/A   Scattered Clouds
4:15 PM 26.6 °F 16.2 °F 12.6 °F 55% 30.36 in 10.0 mi North 11.5 mph - N/A   Scattered Clouds
4:35 PM 26.1 °F 16.8 °F 12.2 °F 56% 30.36 in 10.0 mi NNW 9.2 mph 16.1 mph N/A   Clear
4:55 PM 26.1 °F 16.8 °F 11.5 °F 54% 30.36 in 10.0 mi NW 9.2 mph - N/A   Clear
5:15 PM 25.5 °F 17.8 °F 10.9 °F 54% 30.36 in 10.0 mi NNW 6.9 mph - N/A   Clear
5:35 PM 25.0 °F 14.8 °F 11.1 °F 56% 30.36 in 10.0 mi North 10.4 mph - N/A   Clear
5:55 PM 24.6 °F 14.4 °F 10.0 °F 54% 30.36 in 10.0 mi North 10.4 mph - N/A   Clear
6:15 PM 23.9 °F 14.2 °F 10.6 °F 57% 30.36 in 10.0 mi North 9.2 mph - N/A   Clear
6:35 PM 23.0 °F 13.9 °F 9.5 °F 56% 30.36 in 10.0 mi North 8.1 mph - N/A   Clear
6:55 PM 22.1 °F 14.7 °F 10.6 °F 61% 30.36 in 10.0 mi North 5.8 mph - N/A   Clear
7:15 PM 21.4 °F 15.1 °F 10.2 °F 62% 30.36 in 10.0 mi North 4.6 mph - N/A   Clear
7:35 PM 20.8 °F 13.2 °F 11.1 °F 66% 30.36 in 10.0 mi North 5.8 mph - N/A   Scattered Clouds
7:55 PM 20.1 °F 11.3 °F 10.0 °F 65% 30.36 in 10.0 mi North 6.9 mph - N/A   Scattered Clouds
8:15 PM 19.6 °F - 10.8 °F 69% 30.37 in 10.0 mi Calm Calm - N/A   Mostly Cloudy
8:35 PM 19.6 °F - 10.0 °F 66% 30.37 in 10.0 mi Calm Calm - N/A   Mostly Cloudy
8:55 PM 19.0 °F 13.9 °F 10.4 °F 69% 30.37 in 10.0 mi NNE 3.5 mph - N/A   Mostly Cloudy
9:15 PM 18.9 °F - 10.8 °F 71% 30.37 in 10.0 mi Calm Calm - N/A   Scattered Clouds
9:35 PM 18.1 °F - 10.9 °F 73% 30.37 in 10.0 mi Calm Calm - N/A   Scattered Clouds
9:55 PM 19.0 °F - 10.0 °F 68% 30.37 in 10.0 mi Calm Calm - N/A   Clear
10:15 PM 18.5 °F - 10.9 °F 72% 30.37 in 10.0 mi Calm Calm - N/A   Clear
10:35 PM 18.9 °F - 10.8 °F 71% 30.37 in 10.0 mi Calm Calm - N/A   Clear
10:55 PM 18.5 °F - 10.2 °F 70% 30.37 in 10.0 mi Calm Calm - N/A   Clear
11:15 PM 18.0 °F - 11.1 °F 75% 30.36 in 10.0 mi Calm Calm - N/A   Clear
11:35 PM 17.6 °F - 11.5 °F 77% 30.36 in 10.0 mi Calm Calm - N/A   Clear
11:55 PM 17.2 °F - 11.7 °F 79% 30.36 in 10.0 mi Calm Calm - N/A   Clear